UAL2146 KLAX-KDEN

Flight info

Callsign UAL2146
Flight time 1h 47m
Altitude 39000
Route ORCKA5 LAS J146 DICEE BUMMP SSKII4
Aircraft A310/H-SDFGHIM1RTUWXY/LB1

Departure

Time 2026-04-20 01:09
Airport Los Angeles International Airport (KLAX)

Arrival

Time 2026-04-20 02:57
Airport Denver International Airport (KDEN)
Time Latitude Longitude Altitude Speed Heading
2026-04-20 00:41 33.94089 -118.40938 128 ft 0 kts 264°
2026-04-20 00:56 33.94091 -118.40915 129 ft 4 kts 264°
2026-04-20 00:57 33.94094 -118.40888 131 ft 3 kts 263°
2026-04-20 00:57 33.94101 -118.40859 129 ft 4 kts 227°
2026-04-20 00:57 33.94122 -118.40843 129 ft 4 kts 189°
2026-04-20 00:57 33.94148 -118.40842 131 ft 3 kts 173°
2026-04-20 00:58 33.94151 -118.40842 131 ft 0 kts 173°
2026-04-20 00:59 33.94150 -118.40842 131 ft 0 kts 173°
2026-04-20 01:00 33.94139 -118.40840 126 ft 4 kts 172°
2026-04-20 01:00 33.94109 -118.40835 131 ft 5 kts 172°
2026-04-20 01:00 33.94069 -118.40829 123 ft 6 kts 172°
2026-04-20 01:00 33.94021 -118.40822 129 ft 8 kts 173°
2026-04-20 01:01 33.93998 -118.40818 126 ft 0 kts 173°
2026-04-20 01:02 33.93997 -118.40818 126 ft 0 kts 173°
2026-04-20 01:02 33.93989 -118.40817 139 ft 2 kts 173°
2026-04-20 01:02 33.93970 -118.40814 124 ft 4 kts 173°
2026-04-20 01:03 33.93913 -118.40800 132 ft 10 kts 155°
2026-04-20 01:03 33.93855 -118.40746 130 ft 11 kts 149°
2026-04-20 01:03 33.93815 -118.40668 128 ft 12 kts 98°
2026-04-20 01:03 33.93826 -118.40517 124 ft 24 kts 83°
2026-04-20 01:04 33.93850 -118.40279 131 ft 31 kts 83°
2026-04-20 01:04 33.93876 -118.40023 131 ft 31 kts 83°
2026-04-20 01:04 33.93902 -118.39765 131 ft 31 kts 83°
2026-04-20 01:04 33.93929 -118.39506 131 ft 31 kts 83°
2026-04-20 01:05 33.93957 -118.39245 127 ft 31 kts 83°
2026-04-20 01:05 33.93982 -118.38982 131 ft 32 kts 83°
2026-04-20 01:05 33.94009 -118.38718 131 ft 32 kts 83°
2026-04-20 01:05 33.94037 -118.38452 128 ft 32 kts 83°
2026-04-20 01:06 33.94058 -118.38238 128 ft 19 kts 85°
2026-04-20 01:06 33.94068 -118.38139 131 ft 10 kts 81°
2026-04-20 01:06 33.94075 -118.38078 131 ft 0 kts 81°
2026-04-20 01:06 33.94076 -118.38071 131 ft 2 kts 81°
2026-04-20 01:07 33.94078 -118.38052 130 ft 0 kts 88°
2026-04-20 01:07 33.94077 -118.38047 131 ft 1 kts 93°
2026-04-20 01:07 33.94071 -118.38027 131 ft 6 kts 119°
2026-04-20 01:07 33.94022 -118.37999 129 ft 9 kts 178°
2026-04-20 01:08 33.93983 -118.38052 123 ft 13 kts 256°
2026-04-20 01:08 33.93965 -118.38207 130 ft 27 kts 263°
2026-04-20 01:08 33.93923 -118.38635 126 ft 83 kts 264°
2026-04-20 01:08 33.93822 -118.39583 141 ft 142 kts 262°
2026-04-20 01:09 33.93671 -118.40840 579 ft 159 kts 262°
2026-04-20 01:09 33.93535 -118.42147 1352 ft 160 kts 262°
2026-04-20 01:09 33.93428 -118.43508 2045 ft 168 kts 262°
2026-04-20 01:09 33.93307 -118.44970 2542 ft 185 kts 261°
2026-04-20 01:10 33.93033 -118.46566 2950 ft 202 kts 248°
2026-04-20 01:10 33.91987 -118.49953 4007 ft 231 kts 245°
2026-04-20 01:10 33.91408 -118.51823 4619 ft 250 kts 246°
2026-04-20 01:11 33.90751 -118.53917 4828 ft 279 kts 246°
2026-04-20 01:11 33.90065 -118.56106 4931 ft 277 kts 247°
2026-04-20 01:11 33.89382 -118.58269 4969 ft 277 kts 246°
2026-04-20 01:11 33.88698 -118.60432 4978 ft 276 kts 246°
2026-04-20 01:12 33.87947 -118.62542 4977 ft 272 kts 233°
2026-04-20 01:12 33.86542 -118.63959 5001 ft 263 kts 200°
2026-04-20 01:12 33.84772 -118.64356 5049 ft 261 kts 176°
2026-04-20 01:12 33.83011 -118.63894 5851 ft 258 kts 156°
2026-04-20 01:13 33.81540 -118.62663 6981 ft 262 kts 134°
2026-04-20 01:13 33.80616 -118.60757 8084 ft 270 kts 109°
2026-04-20 01:13 33.80464 -118.58480 9238 ft 281 kts 84°
2026-04-20 01:13 33.81201 -118.56269 10291 ft 295 kts 56°
2026-04-20 01:14 33.82752 -118.54533 11040 ft 316 kts 38°
2026-04-20 01:14 33.84567 -118.52924 11791 ft 332 kts 39°
2026-04-20 01:14 33.86432 -118.51158 12445 ft 352 kts 41°
2026-04-20 01:14 33.88369 -118.49171 12750 ft 379 kts 43°
2026-04-20 01:15 33.90348 -118.47037 12869 ft 383 kts 44°
2026-04-20 01:15 33.92296 -118.44882 12964 ft 387 kts 44°
2026-04-20 01:15 33.94101 -118.42473 13235 ft 389 kts 55°
2026-04-20 01:15 33.95627 -118.39798 14291 ft 388 kts 59°
2026-04-20 01:16 33.97119 -118.37058 15234 ft 394 kts 58°
2026-04-20 01:16 33.98643 -118.34279 16150 ft 400 kts 58°
2026-04-20 01:16 34.00215 -118.31473 17042 ft 407 kts 57°
2026-04-20 01:16 34.01818 -118.28635 17950 ft 413 kts 57°
2026-04-20 01:17 34.03446 -118.25747 18759 ft 419 kts 57°
2026-04-20 01:17 34.05093 -118.22811 19543 ft 425 kts 57°
2026-04-20 01:17 34.06748 -118.19833 20310 ft 430 kts 57°
2026-04-20 01:17 34.08432 -118.16829 21067 ft 435 kts 56°
2026-04-20 01:18 34.10143 -118.13793 21800 ft 440 kts 56°
2026-04-20 01:18 34.11867 -118.10716 22519 ft 445 kts 56°
2026-04-20 01:18 34.13601 -118.07597 23212 ft 450 kts 56°
2026-04-20 01:18 34.15352 -118.04427 23736 ft 457 kts 56°
2026-04-20 01:19 34.17162 -118.01194 23931 ft 472 kts 56°
2026-04-20 01:19 34.19038 -117.97888 24302 ft 480 kts 56°
2026-04-20 01:19 34.20917 -117.94518 24797 ft 485 kts 56°
2026-04-20 01:19 34.22818 -117.91130 25353 ft 488 kts 56°
2026-04-20 01:20 34.24723 -117.87717 25882 ft 492 kts 56°
2026-04-20 01:20 34.26643 -117.84276 26416 ft 495 kts 55°
2026-04-20 01:20 34.28576 -117.80819 26987 ft 497 kts 55°
2026-04-20 01:20 34.30508 -117.77348 27543 ft 499 kts 55°
2026-04-20 01:21 34.32435 -117.73872 28302 ft 497 kts 55°
2026-04-20 01:21 34.34361 -117.70404 29034 ft 495 kts 54°
2026-04-20 01:21 34.36268 -117.67020 29824 ft 491 kts 53°
2026-04-20 01:21 34.38269 -117.63622 30493 ft 489 kts 52°
2026-04-20 01:22 34.40237 -117.60335 31089 ft 488 kts 52°
2026-04-20 01:22 34.42227 -117.57015 31693 ft 486 kts 52°
2026-04-20 01:22 34.44208 -117.53702 32295 ft 485 kts 52°
2026-04-20 01:22 34.46182 -117.50403 32969 ft 484 kts 52°
2026-04-20 01:23 34.48154 -117.47097 33565 ft 483 kts 52°
2026-04-20 01:23 34.50113 -117.43803 34128 ft 482 kts 52°
2026-04-20 01:23 34.52075 -117.40493 34554 ft 483 kts 52°
2026-04-20 01:23 34.54039 -117.37182 34939 ft 485 kts 52°
2026-04-20 01:24 34.56014 -117.33857 35304 ft 486 kts 52°
2026-04-20 01:24 34.57994 -117.30526 35679 ft 488 kts 52°
2026-04-20 01:24 34.59984 -117.27178 36044 ft 490 kts 52°
2026-04-20 01:24 34.61965 -117.23807 36394 ft 491 kts 52°
2026-04-20 01:25 34.63943 -117.20478 36732 ft 493 kts 52°
2026-04-20 01:25 34.65963 -117.17042 36999 ft 495 kts 53°
2026-04-20 01:25 34.67948 -117.13687 37360 ft 496 kts 52°
2026-04-20 01:25 34.69960 -117.10277 37720 ft 497 kts 53°
2026-04-20 01:26 34.71967 -117.06850 38066 ft 499 kts 53°
2026-04-20 01:26 34.74000 -117.03412 38406 ft 500 kts 53°
2026-04-20 01:26 34.76021 -116.99959 38668 ft 503 kts 53°
2026-04-20 01:26 34.78065 -116.96477 38783 ft 508 kts 53°
2026-04-20 01:27 34.82172 -116.89476 38876 ft 506 kts 53°
2026-04-20 01:27 34.86214 -116.82549 38893 ft 499 kts 53°
2026-04-20 01:28 34.90229 -116.75678 38895 ft 496 kts 53°
2026-04-20 01:28 34.94467 -116.69061 38892 ft 494 kts 45°
2026-04-20 01:29 34.99217 -116.63015 38881 ft 493 kts 44°
2026-04-20 01:29 35.03906 -116.56954 38878 ft 494 kts 45°
2026-04-20 01:30 35.08581 -116.50796 38869 ft 494 kts 46°
2026-04-20 01:30 35.13250 -116.44631 38862 ft 495 kts 46°
2026-04-20 01:31 35.17134 -116.39480 38905 ft 495 kts 45°
2026-04-20 01:31 35.21802 -116.33275 38893 ft 496 kts 45°
2026-04-20 01:32 35.26469 -116.27071 38877 ft 496 kts 46°
2026-04-20 01:32 35.31139 -116.20855 38881 ft 495 kts 46°
2026-04-20 01:33 35.35813 -116.14638 38878 ft 495 kts 46°
2026-04-20 01:33 35.40468 -116.08402 38894 ft 495 kts 46°
2026-04-20 01:34 35.45120 -116.02176 38896 ft 495 kts 46°
2026-04-20 01:34 35.49764 -115.95929 38912 ft 495 kts 46°
2026-04-20 01:35 35.54422 -115.89695 38915 ft 496 kts 46°
2026-04-20 01:35 35.59084 -115.83444 38928 ft 496 kts 46°
2026-04-20 01:36 35.63746 -115.77177 38931 ft 497 kts 46°
2026-04-20 01:36 35.68316 -115.70878 38939 ft 497 kts 47°
2026-04-20 01:37 35.72900 -115.64521 38938 ft 497 kts 47°
2026-04-20 01:37 35.77500 -115.58174 38946 ft 497 kts 46°
2026-04-20 01:38 35.82116 -115.51804 38953 ft 499 kts 47°
2026-04-20 01:38 35.86734 -115.45423 38952 ft 498 kts 47°
2026-04-20 01:39 35.91344 -115.39061 38949 ft 497 kts 47°
2026-04-20 01:39 35.95945 -115.32696 38945 ft 497 kts 47°
2026-04-20 01:40 36.00549 -115.26337 38937 ft 497 kts 47°
2026-04-20 01:40 36.05130 -115.19946 38922 ft 496 kts 47°
2026-04-20 01:41 36.09454 -115.13318 38943 ft 496 kts 64°
2026-04-20 01:41 36.11658 -115.05355 38933 ft 493 kts 75°
2026-04-20 01:42 36.13814 -114.97271 38864 ft 496 kts 70°
2026-04-20 01:42 36.16317 -114.89312 38858 ft 496 kts 70°
2026-04-20 01:43 36.18794 -114.81329 38851 ft 496 kts 70°
2026-04-20 01:43 36.21240 -114.73343 38837 ft 496 kts 70°
2026-04-20 01:44 36.23678 -114.65341 38821 ft 496 kts 70°
2026-04-20 01:44 36.26114 -114.57338 38813 ft 496 kts 70°
2026-04-20 01:45 36.28549 -114.49338 38827 ft 496 kts 70°
2026-04-20 01:45 36.30977 -114.41334 38821 ft 496 kts 71°
2026-04-20 01:46 36.33401 -114.33327 38825 ft 496 kts 71°
2026-04-20 01:46 36.35795 -114.25357 38832 ft 496 kts 70°
2026-04-20 01:47 36.38215 -114.17343 38828 ft 496 kts 71°
2026-04-20 01:47 36.40623 -114.09313 38842 ft 496 kts 71°
2026-04-20 01:48 36.43028 -114.01280 38852 ft 497 kts 71°
2026-04-20 01:48 36.45432 -113.93231 38870 ft 497 kts 71°
2026-04-20 01:49 36.47842 -113.85157 38887 ft 498 kts 71°
2026-04-20 01:49 36.50253 -113.77090 38890 ft 498 kts 71°
2026-04-20 01:50 36.52626 -113.69061 38898 ft 498 kts 71°
2026-04-20 01:50 36.55013 -113.60975 38908 ft 498 kts 71°
2026-04-20 01:51 36.57380 -113.52890 38907 ft 498 kts 71°
2026-04-20 01:51 36.59763 -113.44751 38921 ft 504 kts 71°
2026-04-20 01:52 36.62168 -113.36519 38926 ft 507 kts 71°
2026-04-20 01:52 36.64542 -113.28253 38931 ft 507 kts 71°
2026-04-20 01:53 36.66891 -113.19981 38952 ft 506 kts 71°
2026-04-20 01:53 36.69289 -113.11720 38984 ft 506 kts 71°
2026-04-20 01:54 36.71667 -113.03465 39004 ft 506 kts 71°
2026-04-20 01:54 36.74036 -112.95200 39018 ft 506 kts 71°
2026-04-20 01:55 36.76399 -112.86922 39018 ft 506 kts 71°
2026-04-20 01:55 36.78772 -112.78647 39002 ft 506 kts 71°
2026-04-20 01:56 36.81132 -112.70385 38981 ft 505 kts 71°
2026-04-20 01:56 36.83490 -112.62129 38954 ft 504 kts 71°
2026-04-20 01:57 36.85844 -112.53889 38956 ft 504 kts 71°
2026-04-20 01:57 36.88173 -112.45631 38973 ft 504 kts 71°
2026-04-20 01:58 36.90471 -112.37348 38969 ft 504 kts 72°
2026-04-20 01:58 36.92761 -112.29111 38987 ft 505 kts 71°
2026-04-20 01:59 36.95075 -112.20831 38982 ft 505 kts 72°
2026-04-20 01:59 36.97392 -112.12534 38987 ft 505 kts 72°
2026-04-20 02:00 36.99702 -112.04230 38991 ft 506 kts 72°
2026-04-20 02:00 37.02003 -111.95893 38993 ft 507 kts 72°
2026-04-20 02:01 37.04316 -111.87547 38991 ft 508 kts 72°
2026-04-20 02:01 37.06616 -111.79183 38995 ft 507 kts 71°
2026-04-20 02:02 37.08907 -111.70848 38995 ft 506 kts 72°
2026-04-20 02:02 37.11177 -111.62513 39000 ft 505 kts 72°
2026-04-20 02:03 37.13434 -111.54230 39035 ft 505 kts 72°
2026-04-20 02:03 37.15712 -111.45902 39029 ft 505 kts 72°
2026-04-20 02:04 37.17988 -111.37568 39031 ft 505 kts 72°
2026-04-20 02:04 37.20264 -111.29236 39009 ft 505 kts 72°
2026-04-20 02:05 37.22584 -111.20891 38985 ft 506 kts 68°
2026-04-20 02:05 37.25639 -111.12941 38997 ft 506 kts 62°
2026-04-20 02:06 37.28891 -111.05119 38991 ft 505 kts 63°
2026-04-20 02:06 37.32022 -110.97209 39000 ft 505 kts 64°
2026-04-20 02:07 37.35130 -110.89348 39004 ft 505 kts 63°
2026-04-20 02:07 37.38283 -110.81391 39005 ft 505 kts 64°
2026-04-20 02:08 37.41378 -110.73522 38997 ft 505 kts 64°
2026-04-20 02:08 37.44483 -110.65590 39003 ft 505 kts 64°
2026-04-20 02:09 37.47594 -110.57649 39005 ft 505 kts 64°
2026-04-20 02:09 37.50703 -110.49718 39006 ft 505 kts 64°
2026-04-20 02:10 37.53810 -110.41766 39010 ft 505 kts 64°
2026-04-20 02:10 37.56899 -110.33809 39017 ft 505 kts 63°
2026-04-20 02:11 37.59984 -110.25872 39025 ft 503 kts 64°
2026-04-20 02:11 37.63061 -110.17945 39048 ft 503 kts 64°
2026-04-20 02:12 37.66133 -110.10025 39053 ft 503 kts 63°
2026-04-20 02:12 37.69182 -110.02146 39069 ft 502 kts 63°
2026-04-20 02:13 37.72251 -109.94205 39062 ft 502 kts 64°
2026-04-20 02:13 37.75301 -109.86266 39080 ft 503 kts 64°
2026-04-20 02:14 37.78307 -109.78291 39095 ft 502 kts 64°
2026-04-20 02:14 37.81344 -109.70333 39079 ft 502 kts 63°
2026-04-20 02:15 37.84391 -109.62397 39117 ft 502 kts 64°
2026-04-20 02:15 37.87409 -109.54417 39109 ft 502 kts 63°
2026-04-20 02:16 37.90414 -109.46443 39100 ft 502 kts 64°
2026-04-20 02:16 37.93422 -109.38463 39091 ft 502 kts 64°
2026-04-20 02:17 37.96426 -109.30485 39109 ft 502 kts 64°
2026-04-20 02:17 37.98920 -109.23854 39105 ft 501 kts 64°
2026-04-20 02:18 38.01903 -109.15885 39103 ft 500 kts 64°
2026-04-20 02:18 38.05353 -109.06617 39095 ft 500 kts 64°
2026-04-20 02:19 38.07846 -108.99937 39097 ft 499 kts 64°
2026-04-20 02:19 38.10790 -108.92015 39093 ft 499 kts 64°
2026-04-20 02:20 38.13826 -108.84089 39073 ft 499 kts 62°
2026-04-20 02:20 38.16939 -108.76218 39081 ft 499 kts 62°
2026-04-20 02:21 38.21584 -108.64369 39090 ft 499 kts 62°
2026-04-20 02:22 38.24670 -108.56466 39093 ft 499 kts 63°
2026-04-20 02:22 38.27761 -108.48548 39093 ft 499 kts 62°
2026-04-20 02:23 38.30832 -108.40623 39098 ft 499 kts 62°
2026-04-20 02:23 38.33900 -108.32681 39094 ft 500 kts 62°
2026-04-20 02:24 38.36946 -108.24782 39116 ft 500 kts 62°
2026-04-20 02:24 38.40017 -108.16841 39138 ft 499 kts 63°
2026-04-20 02:25 38.43069 -108.08907 39155 ft 498 kts 62°
2026-04-20 02:25 38.46099 -108.00946 39183 ft 498 kts 63°
2026-04-20 02:26 38.49096 -107.92972 39190 ft 498 kts 63°
2026-04-20 02:26 38.52094 -107.84990 39193 ft 499 kts 63°
2026-04-20 02:26 38.53594 -107.80997 39075 ft 499 kts 63°
2026-04-20 02:27 38.55097 -107.76997 39076 ft 499 kts 63°
2026-04-20 02:27 38.58089 -107.69005 39093 ft 499 kts 63°
2026-04-20 02:28 38.61074 -107.61012 39072 ft 495 kts 62°
2026-04-20 02:28 38.64023 -107.53119 39095 ft 490 kts 63°
2026-04-20 02:29 38.66972 -107.45266 39127 ft 489 kts 62°
2026-04-20 02:29 38.69924 -107.37488 39125 ft 489 kts 62°
2026-04-20 02:29 38.71391 -107.33549 38974 ft 492 kts 62°
2026-04-20 02:30 38.72885 -107.29600 38726 ft 492 kts 62°
2026-04-20 02:30 38.74383 -107.25667 38379 ft 490 kts 62°
2026-04-20 02:30 38.75852 -107.21739 38105 ft 487 kts 62°
2026-04-20 02:30 38.77320 -107.17835 37850 ft 485 kts 62°
2026-04-20 02:31 38.78792 -107.13941 37574 ft 485 kts 62°
2026-04-20 02:31 38.80247 -107.10028 37197 ft 486 kts 62°
2026-04-20 02:31 38.81718 -107.06126 36816 ft 486 kts 62°
2026-04-20 02:31 38.83164 -107.02214 36534 ft 484 kts 62°
2026-04-20 02:32 38.84563 -106.98288 36264 ft 484 kts 62°
2026-04-20 02:32 38.85996 -106.94381 36013 ft 484 kts 61°
2026-04-20 02:32 38.87475 -106.90493 35766 ft 484 kts 61°
2026-04-20 02:32 38.88946 -106.86595 35542 ft 485 kts 61°
2026-04-20 02:33 38.90401 -106.82694 35305 ft 484 kts 61°
2026-04-20 02:33 38.91829 -106.78839 35068 ft 484 kts 61°
2026-04-20 02:33 38.93281 -106.74935 34852 ft 484 kts 61°
2026-04-20 02:33 38.94731 -106.71034 34606 ft 484 kts 61°
2026-04-20 02:34 38.96175 -106.67129 34379 ft 484 kts 61°
2026-04-20 02:34 38.97603 -106.63214 34132 ft 484 kts 61°
2026-04-20 02:34 38.99029 -106.59288 33904 ft 484 kts 61°
2026-04-20 02:34 39.00452 -106.55368 33649 ft 484 kts 61°
2026-04-20 02:35 39.01878 -106.51441 33385 ft 484 kts 61°
2026-04-20 02:35 39.03302 -106.47528 33146 ft 484 kts 61°
2026-04-20 02:35 39.04733 -106.43604 32913 ft 484 kts 61°
2026-04-20 02:35 39.06166 -106.39691 32676 ft 483 kts 61°
2026-04-20 02:36 39.07605 -106.35764 32321 ft 485 kts 61°
2026-04-20 02:36 39.09035 -106.31849 32019 ft 479 kts 61°
2026-04-20 02:36 39.10418 -106.28005 31784 ft 469 kts 61°
2026-04-20 02:36 39.11777 -106.24202 31413 ft 466 kts 61°
2026-04-20 02:37 39.13114 -106.20448 30822 ft 456 kts 61°
2026-04-20 02:37 39.14449 -106.16767 29786 ft 452 kts 60°
2026-04-20 02:37 39.15790 -106.13106 28840 ft 452 kts 61°
2026-04-20 02:37 39.17111 -106.09474 28355 ft 443 kts 61°
2026-04-20 02:38 39.18387 -106.05952 27990 ft 438 kts 61°
2026-04-20 02:38 39.19689 -106.02354 27455 ft 434 kts 62°
2026-04-20 02:38 39.20921 -105.98896 26628 ft 427 kts 61°
2026-04-20 02:38 39.22167 -105.95422 25648 ft 425 kts 62°
2026-04-20 02:39 39.23399 -105.91984 24758 ft 420 kts 62°
2026-04-20 02:39 39.24629 -105.88585 24131 ft 416 kts 62°
2026-04-20 02:39 39.25852 -105.85195 23744 ft 414 kts 62°
2026-04-20 02:39 39.27054 -105.81845 23474 ft 410 kts 62°
2026-04-20 02:40 39.28252 -105.78510 23204 ft 409 kts 62°
2026-04-20 02:40 39.29453 -105.75182 22926 ft 408 kts 62°
2026-04-20 02:40 39.30651 -105.71872 22657 ft 406 kts 62°
2026-04-20 02:40 39.31849 -105.68575 22384 ft 404 kts 62°
2026-04-20 02:41 39.33028 -105.65334 22184 ft 393 kts 62°
2026-04-20 02:41 39.34176 -105.62170 21944 ft 386 kts 62°
2026-04-20 02:41 39.35312 -105.59019 21685 ft 387 kts 62°
2026-04-20 02:41 39.36467 -105.55886 21409 ft 387 kts 62°
2026-04-20 02:42 39.37614 -105.52737 21062 ft 387 kts 62°
2026-04-20 02:42 39.38756 -105.49602 20621 ft 385 kts 62°
2026-04-20 02:42 39.39901 -105.46494 20092 ft 380 kts 62°
2026-04-20 02:42 39.41030 -105.43450 19623 ft 368 kts 62°
2026-04-20 02:43 39.41851 -105.40398 19364 ft 357 kts 81°
2026-04-20 02:43 39.41947 -105.37208 19128 ft 354 kts 90°
2026-04-20 02:43 39.41867 -105.34019 18878 ft 354 kts 91°
2026-04-20 02:43 39.41804 -105.30888 18665 ft 352 kts 90°
2026-04-20 02:44 39.41780 -105.27730 18421 ft 351 kts 90°
2026-04-20 02:44 39.41804 -105.24574 18113 ft 352 kts 89°
2026-04-20 02:44 39.41831 -105.21419 17781 ft 351 kts 89°
2026-04-20 02:44 39.41842 -105.18276 17397 ft 347 kts 89°
2026-04-20 02:45 39.41852 -105.15179 16798 ft 344 kts 90°
2026-04-20 02:45 39.41864 -105.12104 16216 ft 340 kts 89°
2026-04-20 02:45 39.41875 -105.09058 15660 ft 336 kts 89°
2026-04-20 02:45 39.41887 -105.06055 15071 ft 332 kts 90°
2026-04-20 02:46 39.41899 -105.03087 14540 ft 327 kts 89°
2026-04-20 02:46 39.41914 -105.00203 14220 ft 313 kts 89°
2026-04-20 02:46 39.41932 -104.97459 14029 ft 295 kts 89°
2026-04-20 02:46 39.41962 -104.94906 13801 ft 273 kts 87°
2026-04-20 02:47 39.42116 -104.92499 13227 ft 271 kts 84°
2026-04-20 02:47 39.42326 -104.90077 12819 ft 269 kts 83°
2026-04-20 02:47 39.42543 -104.87697 12574 ft 266 kts 84°
2026-04-20 02:47 39.42767 -104.85325 12331 ft 266 kts 83°
2026-04-20 02:48 39.42996 -104.82953 12061 ft 266 kts 83°
2026-04-20 02:48 39.43225 -104.80581 11773 ft 265 kts 84°
2026-04-20 02:48 39.43448 -104.78224 11430 ft 262 kts 84°
2026-04-20 02:48 39.43774 -104.75951 11042 ft 259 kts 74°
2026-04-20 02:49 39.44404 -104.73788 10755 ft 254 kts 70°
2026-04-20 02:49 39.45181 -104.71771 10546 ft 254 kts 49°
2026-04-20 02:49 39.46618 -104.70458 10336 ft 257 kts 26°
2026-04-20 02:49 39.48322 -104.69841 10167 ft 250 kts 12°
2026-04-20 02:50 39.50020 -104.69430 10066 ft 249 kts 11°
2026-04-20 02:50 39.51743 -104.69091 10076 ft 253 kts
2026-04-20 02:50 39.53503 -104.69066 10089 ft 255 kts 359°
2026-04-20 02:50 39.55282 -104.69087 10089 ft 254 kts 359°
2026-04-20 02:51 39.57010 -104.69068 10083 ft 244 kts 359°
2026-04-20 02:51 39.58691 -104.69044 10079 ft 241 kts
2026-04-20 02:51 39.60385 -104.69024 10067 ft 245 kts 359°
2026-04-20 02:51 39.62090 -104.69005 10051 ft 247 kts 359°
2026-04-20 02:52 39.63826 -104.68984 9867 ft 250 kts 360°
2026-04-20 02:52 39.65534 -104.68964 9616 ft 240 kts
2026-04-20 02:52 39.67172 -104.68946 9307 ft 232 kts
2026-04-20 02:52 39.68802 -104.68926 8986 ft 234 kts
2026-04-20 02:53 39.70399 -104.68907 8751 ft 230 kts
2026-04-20 02:53 39.72002 -104.68888 8251 ft 228 kts
2026-04-20 02:53 39.73556 -104.68870 7854 ft 219 kts
2026-04-20 02:53 39.75058 -104.68853 7504 ft 210 kts
2026-04-20 02:54 39.76477 -104.68836 7246 ft 198 kts
2026-04-20 02:54 39.77828 -104.68821 6980 ft 188 kts
2026-04-20 02:54 39.79084 -104.68805 6851 ft 175 kts
2026-04-20 02:54 39.80303 -104.68791 6720 ft 175 kts
2026-04-20 02:55 39.81503 -104.68776 6494 ft 174 kts
2026-04-20 02:55 39.82706 -104.68762 6166 ft 171 kts
2026-04-20 02:55 39.83854 -104.68755 5891 ft 159 kts
2026-04-20 02:55 39.84934 -104.68746 5685 ft 154 kts
2026-04-20 02:56 39.85986 -104.68731 5495 ft 151 kts
2026-04-20 02:56 39.87025 -104.68713 5364 ft 145 kts
2026-04-20 02:56 39.87942 -104.68703 5370 ft 119 kts
2026-04-20 02:56 39.88547 -104.68699 5361 ft 50 kts 359°
2026-04-20 02:57 39.88806 -104.68632 5362 ft 26 kts 22°
2026-04-20 02:57 39.88894 -104.68540 5364 ft 7 kts 78°
2026-04-20 02:57 39.88894 -104.68536 5364 ft 0 kts 84°
2026-04-20 02:59 39.88894 -104.68528 5365 ft 1 kts 91°
2026-04-20 02:59 39.88892 -104.68519 5365 ft 1 kts 103°
2026-04-20 02:59 39.88887 -104.68507 5365 ft 2 kts 118°
2026-04-20 02:59 39.88849 -104.68482 5363 ft 11 kts 169°
2026-04-20 03:00 39.88744 -104.68476 5362 ft 19 kts 182°
2026-04-20 03:00 39.88602 -104.68482 5362 ft 21 kts 181°
2026-04-20 03:00 39.88453 -104.68484 5362 ft 21 kts 179°
2026-04-20 03:00 39.88309 -104.68483 5364 ft 20 kts 180°
2026-04-20 03:01 39.88177 -104.68486 5365 ft 18 kts 180°
2026-04-20 03:01 39.88050 -104.68487 5366 ft 18 kts 180°
2026-04-20 03:01 39.87930 -104.68490 5369 ft 17 kts 180°
2026-04-20 03:01 39.87813 -104.68491 5366 ft 17 kts 181°
2026-04-20 03:02 39.87684 -104.68494 5367 ft 21 kts 180°
2026-04-20 03:02 39.87512 -104.68494 5367 ft 28 kts 179°
2026-04-20 03:02 39.87312 -104.68494 5364 ft 29 kts 181°
2026-04-20 03:02 39.87115 -104.68498 5364 ft 28 kts 180°
2026-04-20 03:03 39.86925 -104.68499 5363 ft 27 kts 181°
2026-04-20 03:03 39.86751 -104.68501 5369 ft 23 kts 180°
2026-04-20 03:03 39.86594 -104.68503 5370 ft 22 kts 180°
2026-04-20 03:03 39.86449 -104.68506 5371 ft 20 kts 181°
2026-04-20 03:04 39.86316 -104.68508 5371 ft 19 kts 180°
2026-04-20 03:04 39.86180 -104.68509 5369 ft 17 kts 180°
2026-04-20 03:04 39.86086 -104.68509 5369 ft 12 kts 181°
2026-04-20 03:04 39.86035 -104.68473 5368 ft 9 kts 120°
2026-04-20 03:05 39.86031 -104.68389 5374 ft 7 kts 90°
2026-04-20 03:05 39.86031 -104.68333 5379 ft 9 kts 90°
2026-04-20 03:05 39.86032 -104.68238 5389 ft 11 kts 85°
2026-04-20 03:05 39.86053 -104.68153 5389 ft 14 kts 65°
2026-04-20 03:06 39.86070 -104.68008 5392 ft 17 kts 90°
2026-04-20 03:06 39.86068 -104.67858 5392 ft 16 kts 90°
2026-04-20 03:06 39.86068 -104.67710 5389 ft 16 kts 90°
2026-04-20 03:06 39.86067 -104.67632 5392 ft 9 kts 90°
2026-04-20 03:07 39.86054 -104.67556 5390 ft 8 kts 120°
2026-04-20 03:07 39.86023 -104.67528 5389 ft 4 kts 161°
2026-04-20 03:07 39.86001 -104.67524 5389 ft 0 kts 175°
2026-04-20 03:10 39.85962 -104.67470 5392 ft 12 kts 72°